Location: Altamira
(10.5079°N, 66.8544°W)
Time: 01:04:53
(UTC+00:00)

N. Korean satellite - Visible Passes

Search period start: 07 December 2022 00:00
Search period end: 17 December 2022 00:00
Orbit: 421 x 453 km, 97.3° (Epoch: 06 December)

Date Brightness Start Highest point End Pass type
(mag) Time Alt. Az. Time Alt. Az. Time Alt. Az.
07 Dec 6.3 09:27:19 10° NNE 09:30:38 85° E 09:33:54 10° S visible
08 Dec 9.5 08:49:32 10° ENE 08:51:39 16° E 08:53:45 10° SE visible
09 Dec 6.5 09:41:46 10° N 09:44:58 49° WNW 09:48:09 10° SSW visible
10 Dec 8.5 09:03:06 10° NE 09:05:57 27° E 09:08:47 10° SSE visible
11 Dec 7.3 09:56:19 10° NNW 09:59:09 27° WNW 10:01:56 10° SW visible
12 Dec 7.2 09:16:53 10° NNE 09:20:05 50° E 09:23:15 10° S visible
13 Dec 9.9 08:40:26 10° E 08:40:54 10° E 08:41:20 10° ESE visible
13 Dec 8.0 10:11:06 10° NW 10:13:09 16° WNW 10:15:11 10° WSW visible
14 Dec 6.2 09:30:46 10° N 09:34:02 84° W 09:37:17 10° SSW visible
15 Dec 9.3 08:52:33 10° NE 08:54:48 17° E 08:57:02 10° SE visible
16 Dec 6.6 09:44:42 10° N 09:47:50 43° WNW 09:50:55 10° SSW visible
